User: anonymous   Login
Location: Unspecified
(0.0000°N, 0.0000°E)
Time: 07:42:57
(UTC+00:00)
Language:

Okean 1-7 - Orbit

View from above orbital plane
View from above orbital plane
View from above satellite
View from above satellite

Ground track
Ground track

The orbit data is extracted from the following two-line orbital elements,

1 23317U 94066A   17289.89553367 +.00000322 +00000-0 +32736-4 0  9996
2 23317 082.5404 003.8555 0020342 025.3122 334.9087 14.87467204244044
Epoch (UTC): 16 October 2017 21:29:34
Eccentricity: 0.0020342
inclination: 82.5404°
perigee height: 591 km
apogee height: 620 km
right ascension of ascending node: 3.8555°
argument of perigee: 25.3122°
revolutions per day: 14.87467204
mean anomaly at epoch: 334.9087°
orbit number at epoch: 24404

The dashed part of the orbit path shows where the satellite is in the earth's shadow,  

DLR